Moffett Federal Airfield Mountain View US
ICAO: KNUQ
IATA: NUQ
Category: Medium
Scheduled Services: No

Elevation: 32 ft
TransAlt. 18000 ft.

Airport Communications:
NORCAL APP:31.76
NORCAL APP:120.1
ATIS/ASOS:124.175
CLNC DEL:38.08
CTAF:119.55
NORCAL DEP:121.3
GND:121.85
ANG:39.09
BASE OPS:25.17
TWR:119.55

KNUQ Zoom In..

Runways:

(A) RW 14L length 9197 ft width 200 ft
LOC 110.35 / hdg 142

(B) RW 14R length 8122 ft width 200 ft
LOC 110.35 / hdg 142

(C) RW 32L length 8122 ft width 200 ft
LOC 110.35 / hdg 322

(D) RW 32R length 9197 ft width 200 ft
ILS 110.35 / hdg 322

Location; KNUQ
Day. 15 / Time. 10.00 Zulu
* Altimeter: 30.28
* Temperature: 06° c. 42.8°f.
* Wind from: 000° Speed 00 kn.
Dewpoint: 05° c.
Visibility: 10 Statute Miles.
Clouds: Clear (automated report).

KNUQ 151000Z AUTO 00000KT 10SM CLR 06/05 A3028 RMK AO2

Going to: --> -->


Wind - Calm.

 
 
jpsmedia worldairports.se 2020   terms of use